#timestamp,LO_Frequency,Hit,StdDev 
1512471615.7,286046975.7,Y
1512471635.5,286046967.4,P
1512471655.3,286046957.7,N
1512471675.2,286046947.8,P
1512471695.9,286046949.2,N
1512471715.7,286046947.3,N
1512471735.6,286046954.0,N
1512471755.4,286046950.1,N
1512471775.3,286046949.4,Y
1512471795.1,286046996.2,P
1512471796.0,286046996.2,N
1512471815.8,286047000.1,N
1512471835.7,286047002.6,N
1512471855.5,286047012.4,N
1512471875.3,286047016.6,N
1512471895.2,286047017.5,N
1512471915.0,286047017.5,N
1512471915.9,286047017.5,N
1512471935.8,286047017.4,N
1512471955.6,286047016.0,N
1512471975.4,286047014.5,N
1512471995.3,286047014.0,N
1512472015.1,286047014.3,N
1512472035.8,286047015.4,N
1512472055.7,286047014.8,N
1512472075.5,286047016.0,N
1512472095.4,286047020.4,N
1512472115.2,286047020.3,N
1512472135.0,286047018.8,N
1512472135.9,286047018.8,N
1512472155.8,286047018.6,N
1512472175.6,286047019.5,N
1512472195.5,286047025.2,N
1512472215.3,286047024.4,N
1512472235.1,286047028.3,N
1512472255.9,286047028.2,N
1512472275.7,286047022.7,N
1512472295.5,286047022.7,N
1512472315.4,286047027.1,N
1512472335.2,286047025.9,Y
1512472355.1,286047006.9,P
1512472356.0,286047006.9,N
1512472375.8,286047001.3,N
1512472395.6,286047004.1,N
1512472415.5,286047002.1,N
1512472435.3,286046999.9,N
1512472455.1,286047003.8,N
1512472475.9,286046999.9,N
1512472495.7,286047007.1,N
1512472515.6,286047008.8,N
1512472535.4,286047009.2,N
1512472555.2,286047008.5,N
1512472575.1,286047009.1,N
1512472576.0,286047009.1,N
1512472595.8,286047004.1,N
1512472615.6,286047001.5,N
1512472635.5,286047004.3,N
1512472655.3,286047004.4,N
1512472675.2,286046996.9,N
1512472695.9,286046999.6,N
1512472715.7,286046995.5,N
1512472735.6,286047000.2,N
1512472755.4,286047002.0,N
1512472775.2,286047007.2,N
1512472795.1,286047008.9,N
1512472796.0,286047008.9,N
1512472815.8,286047002.9,N
1512472835.7,286047005.9,N
1512472855.5,286047007.9,N
1512472875.3,286047010.2,N
1512472895.2,286047004.8,N
1512472915.0,286047007.4,N
1512472915.9,286047007.4,N
1512472935.8,286047011.1,N
1512472955.6,286047012.1,N
1512472975.4,286047005.2,N
1512472995.3,286047002.2,N
1512473015.1,286047003.0,N
1512473035.8,286047008.7,N
1512473055.7,286047012.4,Y
1512473075.5,286047007.3,P
1512473095.4,286047007.4,P
1512473115.2,286047008.1,P
1512473135.0,286047009.6,Y
1512473135.9,286047009.6,P
1512473155.8,286047003.6,N
1512473175.6,286047005.7,N
1512473195.5,286047002.6,N
1512473215.3,286046997.4,N
1512473235.1,286046997.3,N
1512473255.9,286046998.2,N
1512473275.7,286046999.2,N
1512473295.5,286046997.1,N
1512473315.4,286046999.3,N
1512473335.2,286047001.3,N
1512473355.1,286047005.0,N
1512473356.0,286047005.0,N
1512473375.8,286047003.8,N
1512473395.6,286047004.3,N
1512473415.5,286046996.0,N
1512473435.3,286046984.9,Y
1512473455.1,286046973.3,P
1512473475.9,286046970.0,N
1512473495.7,286046972.6,N
1512473515.6,286046975.3,N
1512473535.4,286046984.2,N
1512473555.2,286046984.7,N
1512473575.1,286046984.7,N
1512473576.0,286046984.7,N
1512473595.8,286046980.5,N
1512473615.6,286046983.3,N
1512473635.5,286046985.3,N
1512473655.3,286046986.5,N
1512473675.2,286046982.8,N
1512473695.9,286046985.3,N
1512473715.7,286046991.4,N
1512473735.6,286046988.7,N
1512473755.4,286046996.1,N
1512473775.2,286046991.9,N
1512473795.1,286046990.9,N
1512473796.0,286046990.9,N
1512473815.8,286046986.5,N
1512473835.7,286046982.4,N
1512473855.5,286046989.7,N
1512473875.3,286046991.3,N
1512473895.2,286046991.7,N
1512473915.0,286046993.3,N
1512473915.9,286046993.3,N
1512473935.7,286046995.2,N
1512473955.6,286046997.0,N
1512473975.4,286046997.2,N
1512473995.3,286046992.2,N
1512474015.1,286046993.9,N
1512474035.8,286046994.8,N
1512474055.7,286046996.1,N
1512474075.5,286046988.7,N
1512474095.3,286046992.0,N
1512474115.2,286046987.0,N
1512474135.0,286046985.8,Y
1512474135.9,286046985.8,P
1512474155.8,286046999.2,N
1512474175.6,286046997.2,N
1512474195.4,286046992.4,N
1512474215.3,286046977.3,Y
1512474235.1,286046975.6,P
1512474255.9,286046965.9,P
1512474275.7,286046954.9,P
1512474295.5,286046953.8,Y
1512474315.4,286046978.2,P
1512474335.2,286046974.8,P
1512474355.1,286046972.8,P
1512474356.0,286046972.8,Y
1512474375.8,286046995.9,P
1512474395.6,286046990.5,N
1512474415.5,286046991.0,N
1512474435.3,286047002.3,N
1512474455.1,286047001.1,N
1512474475.9,286047003.2,N
1512474495.7,286047006.4,N
1512474515.6,286047008.3,N
1512474535.4,286047016.5,N
1512474555.2,286047017.1,N
1512474575.1,286047018.5,N
1512474576.0,286047018.5,N
1512474595.8,286047015.2,N
1512474615.6,286047010.8,N
1512474635.5,286047014.1,N
1512474655.3,286047016.9,N
1512474675.2,286047025.0,N
1512474695.9,286047031.1,N
1512474715.7,286047028.2,N
1512474735.6,286047033.1,N
1512474755.4,286047033.8,N
1512474775.3,286047042.6,N
1512474795.1,286047032.9,N
1512474796.0,286047032.9,N
1512474815.8,286047019.2,N
1512474835.7,286047014.0,N
1512474855.5,286047006.5,N
1512474875.3,286047003.8,N
1512474895.2,286046999.8,N
1512474915.0,286047002.0,N
1512474915.9,286047002.0,N
1512474935.8,286047001.6,N
1512474955.6,286047002.0,N
1512474975.4,286047002.1,N
1512474995.3,286047003.7,N
1512475015.1,286047004.0,N
1512475035.8,286047003.4,N
1512475055.7,286047004.4,N
1512475075.5,286047003.8,N
1512475095.4,286047006.0,N
1512475115.2,286047007.0,N
1512475135.0,286047007.0,N
1512475135.9,286047007.0,N
1512475155.8,286047009.6,N
1512475175.6,286047007.2,N
1512475195.5,286047004.6,N
